Regional Weather Roundup
Issued by NWS

Home | Current Version | Previous Version | Graphics & Text | Print | Product List | Glossary On
Versions: 1 2 3 4 5 6 7 8 9 10 11 12 13 14 15 16 17 18 19 20 21 22 23 24 25 26 27 28 29 30 31 32 33 34 35 36 37 38 39 40 41 42 43 44 45 46 47 48 49 50
000
ASUS44 KMEG 311200
RWRTN
TENNESSEE HOURLY STATE WEATHER ROUNDUP
NATIONAL WEATHER SERVICE MEMPHIS TN
700 AM CDT MON AUG 31 2015

TNZ002-004-019-021-049-052-054-088>092-311300-
WEST TENNESSEE

CITY           SKY/WX    TMP DP  RH WIND       PRES   REMARKS
MEMPHIS INTL   PTCLDY    71  66  84 SE5       30.08R
NWS MEMPHIS      N/A     69 N/A N/A MISG        N/A
JACKSON        PTCLDY    64  63  96 CALM      30.10R FOG
DYERSBURG      CLOUDY   N/A N/A N/A MISG        N/A
UNION CITY     CLEAR    N/A N/A N/A CALM      30.10R
PARIS          CLEAR     64  64 100 CALM      30.12R
LEXINGTON      CLEAR     63  63 100 CALM      30.10R
$$

TNZ008-025-027-028-033-062-065-066-311300-
NORTH MIDDLE TENNESSEE

CITY           SKY/WX    TMP DP  RH WIND       PRES   REMARKS
NASHVILLE      PTCLDY    67  63  87 CALM      30.13R
CLARKSVILLE    FOG       63  62  97 CALM      30.12R VSB 1/4
COOKEVILLE     CLEAR     63  63 100 CALM      30.14R
CROSSVILLE     PTCLDY    64  61  90 CALM      30.18R FOG
$$

TNZ061-075-076-078-094-096-097-311300-
SOUTH MIDDLE TENNESSEE

CITY           SKY/WX    TMP DP  RH WIND       PRES   REMARKS
FAYETTEVILLE   CLEAR     63  63 100 NE3       30.13R
TULLAHOMA      CLEAR     63  61  94 CALM      30.15R
WINCHESTER     CLEAR     64  63  94 CALM      30.13R
COLUMBIA       PTCLDY    63  63 100 CALM      30.11R
SHELBYVILLE    CLEAR     63  63 100 CALM      30.14R
$$

TNZ017-018-042-046-047-311300-
NORTHEAST TENNESSEE

CITY           SKY/WX    TMP DP  RH WIND       PRES   REMARKS
TRI CITIES     PTSUNNY   66  64  93 CALM      30.17R
ELIZABETHTON   SUNNY     63  61  94 N3        30.18R
$$

TNZ012-013-036-069-073-074-311300-
CENTRAL EAST TENNESSEE

CITY           SKY/WX    TMP DP  RH WIND       PRES   REMARKS
KNOXVILLE      PTCLDY    65  65 100 CALM      30.13R
OAK RIDGE      FOG       67  65  93 E3        30.16R VSB 3/4
GATLINBURG     SUNNY     61  61 100 CALM      30.14S
$$

TNZ083-085-099-311300-
SOUTHEAST TENNESSEE

CITY           SKY/WX    TMP DP  RH WIND       PRES   REMARKS
CHATTANOOGA    CLOUDY    71  65  81 CALM      30.14R
$$

SKY/WX REPORTED AS FAIR MEANS FEW OR NO CLOUDS BELOW
12 THOUSAND FEET.



USA.gov is the U.S. government's official web portal to all federal, state and local government web resources and services.